Accueil
METAR-TAF:

METAR-TAF

Aéroports :

Deer Park Airport

Deer Park, Washington, États-Unis

latitude: 47-58-27N, longitude: 117-25-42W, altitude: 672 m

Observation

Le bulletin a été fait il y a 1 heure et 1 minutes, à 18:53 UTC
Vent 5 kt de nord-est
Température 2°C
Humidité 69%
Pression 1014 hPa
Visibilité: 16.1 km
Ciel clair

METAR: KDEW 211853Z AUTO 04005KT 10SM CLR 02/M03 A2995 RMK AO2 SLP163 T00221033

Heure: 11:54 (19:54 UTC)


TAF: absent

Observations et prévisions météorologiques de plus de 4000 aéroports (messages METAR et TAF).

Les stations disponibles sont représentées par des disques jaunes et rouges sur la carte.

Passer la souris dessus pour voir le nom de la station.

Cliquer dessus pour voir les observations et prévisions météorologiques.

Pour changer de carte: cliquez sur les boutons verts avec une croix noire pour zoomer, sur le bouton vert avec un tiret pour effectuer un zoom arrière, ou sur les flèches vertes pour les cartes adjacentes.


METAR-TAF: